CW3276 Weather Reports


time (UTC)temp
F
wind
direction
speed
knots
gust
knots
rain 1hr
in
rain 24hr
in
rain mn
in
humidity
%
barometer
mb
20260506135007 55 23 4.3 12.2 0.00 0.00 0.00 66 1006.0
20260506133941 56 45 4.3 10.4 0.00 0.00 0.00 67 1006.0
20260506132933 56 45 2.6 9.6 0.00 0.00 0.00 66 1006.0
20260506131929 56 23 3.5 8.7 0.00 0.00 0.00 66 1005.9
20260506130923 56 23 2.6 6.1 0.00 0.00 0.00 65 1005.9
20260506125855 56 0 4.3 10.4 0.00 0.00 0.00 63 1005.9
20260506122753 57 0 3.5 7.8 0.00 0.00 0.00 62 1005.7
20260506121732 57 45 5.2 13.0 0.00 0.00 0.00 61 1005.5
20260506120740 57 45 4.3 14.8 0.00 0.00 0.00 61 1005.5
20260506115636 58 45 4.3 14.8 0.00 0.00 0.00 64 1005.5
20260506114608 57 45 3.5 9.6 0.00 0.00 0.00 65 1005.5
20260506113551 57 45 3.5 9.6 0.00 0.00 0.00 63 1005.5
20260506111540 56 45 6.1 13.0 0.00 0.00 0.00 61 1005.5
20260506110454 56 45 5.2 13.9 0.00 0.00 0.00 63 1005.5
20260506105449 56 23 3.5 10.4 0.00 0.00 0.00 66 1005.5
20260506104414 55 45 4.3 12.2 0.00 0.00 0.00 66 1005.6
20260506103341 54 45 2.6 8.7 0.00 0.00 0.00 70 1005.6
20260506101243 54 45 2.6 7.0 0.00 0.00 0.00 72 1005.5
20260506100239 53 45 2.6 9.6 0.00 0.00 0.00 70 1005.6
20260506095104 53 45 1.7 6.1 0.00 0.00 0.00 70 1005.6
20260506094039 53 45 3.5 9.6 0.00 0.00 0.00 69 1005.6
20260506093013 53 23 3.5 7.8 0.00 0.00 0.00 70 1005.6
20260506091946 53 45 3.5 10.4 0.00 0.00 0.00 70 1005.6
20260506090919 52 45 3.5 9.6 0.00 0.00 0.00 71 1005.6
20260506085845 52 45 2.6 8.7 0.00 0.00 0.00 73 1005.6
20260506084820 52 45 3.5 8.7 0.00 0.00 0.00 74 1005.6
20260506083815 51 45 1.7 8.7 0.00 0.00 0.00 73 1005.6
20260506081716 51 45 1.7 8.7 0.00 0.00 0.00 73 1005.6
20260506080701 50 23 1.7 6.1 0.00 0.00 0.00 74 1005.4
20260506072603 50 45 1.7 5.2 0.00 0.00 0.00 75 1005.3
20260506071537 50 45 1.7 5.2 0.00 0.00 0.00 75 1005.2
20260506070525 50 45 2.6 7.8 0.00 0.00 0.00 75 1005.2
20260506062331 49 0 3.5 8.7 0.00 0.01 0.00 75 1005.1
20260506061331 49 45 3.5 8.7 0.00 0.01 0.00 77 1005.1
20260506060301 49 45 3.5 11.3 0.00 0.01 0.00 77 1005.1
20260506051042 48 45 2.6 9.6 0.00 0.05 0.00 77 1005.2
20260506045011 48 45 1.7 6.1 0.00 0.06 0.00 77 1005.4
20260506043937 48 45 2.6 7.0 0.00 0.07 0.00 77 1005.4
20260506042920 48 45 1.7 7.0 0.00 0.08 0.00 77 1005.4
20260506041914 48 45 2.6 6.1 0.00 0.09 0.00 78 1005.3
20260506040839 48 45 1.7 8.7 0.00 0.10 0.00 78 1005.3
20260506035809 48 45 1.7 7.8 0.00 0.11 0.00 79 1005.3
20260506034804 48 45 2.6 7.8 0.00 0.13 0.00 79 1005.3
20260506033740 47 45 1.7 6.1 0.00 0.13 0.00 79 1005.4
20260506032708 47 45 2.6 6.1 0.00 0.15 0.00 79 1005.4
20260506031651 47 45 2.6 6.1 0.00 0.16 0.00 80 1005.6
20260506030623 47 45 1.7 6.1 0.00 0.18 0.00 81 1005.7
20260506025603 47 45 1.7 5.2 0.00 0.19 0.00 81 1005.8
20260506024532 47 45 1.7 5.2 0.00 0.19 0.00 83 1005.9
20260506023507 47 0 1.7 6.1 0.00 0.19 0.00 83 1006.0
20260506022450 47 45 1.7 7.0 0.00 0.19 0.00 84 1006.0
20260506021425 48 23 1.7 7.0 0.00 0.19 0.00 84 1006.1
20260506020428 48 23 1.7 4.3 0.00 0.19 0.00 84 1006.2
20260506015405 48 23 0.9 2.6 0.00 0.19 0.00 84 1006.3
20260506013312 48 23 0.9 3.5 0.00 0.19 0.00 84 1006.3
20260506012240 48 23 0.9 4.3 0.00 0.19 0.00 84 1006.3
20260506011238 48 23 0.9 3.5 0.00 0.19 0.00 84 1006.5
20260506010213 48 45 0.9 2.6 0.00 0.19 0.00 84 1006.5
20260506005212 48 45 0.9 3.5 0.00 0.19 0.00 83 1006.6
20260506004156 48 45 0.9 3.5 0.00 0.19 0.00 83 1006.7
20260506003153 48 45 0.0 2.6 0.00 0.19 0.00 84 1006.7
20260506002154 48 45 1.7 3.5 0.00 0.19 0.00 84 1006.7
20260506001118 48 45 0.9 4.3 0.00 0.19 0.00 85 1006.7
20260505234004 48 0 1.7 6.1 0.00 0.19 0.00 90 1006.9
20260505232946 48 45 1.7 5.2 0.00 0.19 0.00 91 1006.9
20260505231928 48 45 1.7 6.1 0.00 0.19 0.00 91 1006.8
20260505230913 48 45 0.9 4.3 0.00 0.19 0.00 90 1006.9
20260505225842 48 23 0.9 3.5 0.00 0.19 0.00 90 1006.9
20260505224838 48 45 0.9 3.5 0.00 0.19 0.00 89 1007.2
20260505223814 48 45 0.0 2.6 0.00 0.19 0.00 88 1007.2
20260505222757 48 45 0.0 1.7 0.00 0.19 0.00 88 1007.2
20260505220703 48 45 0.0 3.5 0.00 0.19 0.00 87 1007.3
20260505214610 49 45 0.0 1.7 0.00 0.19 0.19 86 1007.4
20260505213536 49 45 0.0 2.6 0.00 0.19 0.19 85 1007.5
20260505212510 49 45 0.0 2.6 0.00 0.19 0.19 85 1007.5
20260505211447 49 45 0.0 1.7 0.00 0.19 0.19 84 1007.4
20260505210456 49 45 0.0 1.7 0.00 0.19 0.19 84 1007.4
20260505205411 50 45 0.0 1.7 0.00 0.19 0.19 84 1007.4
20260505204344 50 45 0.9 3.5 0.00 0.19 0.19 83 1007.4
20260505203321 50 45 0.9 2.6 0.00 0.19 0.19 82 1007.4
20260505202255 50 45 0.9 4.3 0.00 0.19 0.19 82 1007.4
20260505201231 50 45 1.7 4.3 0.00 0.19 0.19 81 1007.1
20260505200206 51 23 1.7 5.2 0.00 0.19 0.19 81 1007.1
20260505195205 51 45 1.7 6.1 0.00 0.19 0.19 80 1007.1
20260505194149 51 45 0.9 4.3 0.00 0.19 0.19 80 1007.1
20260505193124 51 45 0.9 3.5 0.00 0.19 0.19 80 1007.1
20260505192058 52 45 0.9 3.5 0.00 0.19 0.19 79 1007.0
20260505191040 52 45 1.7 4.3 0.00 0.19 0.19 79 1007.0
20260505190011 53 45 0.9 3.5 0.00 0.19 0.19 79 1007.0
20260505184936 53 45 0.9 4.3 0.00 0.19 0.19 79 1007.0
20260505183902 54 45 1.7 4.3 0.00 0.19 0.19 79 1007.1
20260505182844 54 45 1.7 6.1 0.00 0.19 0.19 78 1007.1
20260505181818 54 23 1.7 5.2 0.00 0.19 0.19 78 1007.0
20260505180818 55 45 0.9 4.3 0.00 0.19 0.19 78 1007.1
20260505175816 55 45 1.7 4.3 0.00 0.19 0.19 77 1007.1
20260505172654 55 0 2.6 7.8 0.00 0.19 0.19 77 1007.0
20260505171647 55 45 2.6 7.8 0.00 0.19 0.19 76 1007.1
20260505170625 55 45 1.7 7.0 0.00 0.19 0.19 78 1007.0
20260505165543 55 45 1.7 6.1 0.00 0.19 0.19 79 1007.0
20260505164521 55 45 1.7 5.2 0.00 0.19 0.19 79 1007.2
20260505163502 55 23 1.7 6.1 0.00 0.19 0.19 79 1007.4
20260505161406 56 45 2.6 8.7 0.00 0.19 0.19 79 1007.5
20260505153306 56 23 1.7 6.1 0.00 0.19 0.19 80 1007.6
20260505151213 56 45 1.7 4.3 0.00 0.19 0.19 80 1007.6
20260505150214 56 0 1.7 5.2 0.00 0.19 0.19 80 1007.6